When you browse on this site, cookies collect data to enhance your experience and personalize the content and advertising you see.
Visit our Privacy Policy to learn more. By continuing to use the site, you agree to this use of cookies and data.
  • In Hungary
  • List of Countries
  • For 7 days
  • Water Temperature
  • Weather Map
  • News
  • Weather Widgets
  • user-avatar
    Login

    Hourly Weather Pravoberezhnyy

    Today, 15 October, Tuesday

    Time Temperature Precipitation Wind Pressure Humidity
    00:00 +16°C° 0 mm 2 mps 765 mmHg 62%
    01:00 +16°C° 0 mm 2 mps 765 mmHg 62%
    02:00 +15°C° 0 mm 2 mps 765 mmHg 61%
    03:00 +15°C° 0 mm 2 mps 764 mmHg 62%
    04:00 +15°C° 0 mm 2 mps 764 mmHg 61%
    05:00 +14°C° 0 mm 2 mps 764 mmHg 60%
    06:00 +14°C° 0 mm 2 mps 764 mmHg 59%
    07:00 +15°C° 0 mm 2 mps 764 mmHg 56%
    08:00 +16°C° 0 mm 2 mps 764 mmHg 52%
    09:00 +18°C° 0 mm 2 mps 764 mmHg 49%
    10:00 +19°C° 0 mm 2 mps 764 mmHg 43%
    11:00 +21°C° 0 mm 2 mps 764 mmHg 38%
    12:00 +24°C° 0 mm 2 mps 764 mmHg 33%
    13:00 +24°C° 0 mm 2 mps 763 mmHg 31%
    14:00 +25°C° 0 mm 1 mps 763 mmHg 30%
    15:00 +25°C° 0 mm 1 mps 763 mmHg 29%
    16:00 +24°C° 0 mm 1 mps 762 mmHg 32%
    17:00 +22°C° 0 mm 1 mps 762 mmHg 36%
    18:00 +21°C° 0 mm 1 mps 762 mmHg 40%
    19:00 +20°C° 0 mm 1 mps 762 mmHg 41%
    20:00 +20°C° 0 mm 1 mps 763 mmHg 41%
    21:00 +19°C° 0 mm 1 mps 763 mmHg 42%
    22:00 +19°C° 0 mm 1 mps 763 mmHg 44%
    23:00 +17°C° 0 mm 2 mps 763 mmHg 46%

    Tomorrow, 16 October, Wednesday

    Time Temperature Precipitation Wind Pressure Humidity
    00:00 +17°C° 0 mm 2 mps 762 mmHg 49%
    01:00 +16°C° 0 mm 2 mps 763 mmHg 50%
    02:00 +16°C° 0 mm 2 mps 763 mmHg 52%
    03:00 +16°C° 0 mm 2 mps 763 mmHg 54%
    04:00 +15°C° 0 mm 2 mps 763 mmHg 55%
    05:00 +15°C° 0 mm 2 mps 763 mmHg 56%
    06:00 +15°C° 0 mm 2 mps 763 mmHg 58%
    07:00 +16°C° 0 mm 2 mps 763 mmHg 54%
    08:00 +17°C° 0 mm 2 mps 763 mmHg 51%
    09:00 +19°C° 0 mm 2 mps 764 mmHg 48%
    10:00 +20°C° 0 mm 3 mps 764 mmHg 44%
    11:00 +21°C° 0 mm 3 mps 764 mmHg 40%
    12:00 +24°C° 0 mm 3 mps 763 mmHg 36%
    13:00 +24°C° 0 mm 3 mps 763 mmHg 35%
    14:00 +25°C° 0 mm 3 mps 763 mmHg 35%
    15:00 +25°C° 0 mm 4 mps 763 mmHg 34%
    16:00 +22°C° 0 mm 4 mps 763 mmHg 40%
    17:00 +21°C° 0 mm 4 mps 764 mmHg 47%
    18:00 +19°C° 0 mm 4 mps 764 mmHg 53%
    19:00 +19°C° 0 mm 5 mps 764 mmHg 57%
    20:00 +17°C° 0 mm 5 mps 764 mmHg 61%
    21:00 +16°C° 0 mm 5 mps 765 mmHg 65%
    22:00 +16°C° 0 mm 5 mps 765 mmHg 68%
    23:00 +16°C° 0 mm 6 mps 765 mmHg 70%

    Day after tomorrow, 17 October, Thursday

    Time Temperature Precipitation Wind Pressure Humidity
    00:00 +15°C° 0 mm 6 mps 765 mmHg 72%
    01:00 +15°C° 0 mm 6 mps 765 mmHg 73%
    02:00 +14°C° 0 mm 6 mps 765 mmHg 74%
    03:00 +14°C° 0 mm 6 mps 765 mmHg 75%
    04:00 +13°C° 0 mm 6 mps 765 mmHg 75%
    05:00 +13°C° 0 mm 6 mps 765 mmHg 76%
    06:00 +13°C° 0 mm 6 mps 765 mmHg 77%
    07:00 +13°C° 0 mm 6 mps 765 mmHg 74%
    08:00 +14°C° 0 mm 7 mps 765 mmHg 71%
    09:00 +15°C° 0 mm 7 mps 765 mmHg 69%
    10:00 +17°C° 0 mm 7 mps 765 mmHg 64%
    11:00 +18°C° 0 mm 7 mps 765 mmHg 59%
    12:00 +20°C° 0 mm 7 mps 765 mmHg 54%
    13:00 +21°C° 0 mm 7 mps 765 mmHg 52%
    14:00 +21°C° 0 mm 7 mps 764 mmHg 50%
    15:00 +21°C° 0 mm 7 mps 764 mmHg 48%
    16:00 +20°C° 0 mm 7 mps 764 mmHg 52%
    17:00 +19°C° 0 mm 6 mps 764 mmHg 56%
    18:00 +17°C° 0 mm 6 mps 764 mmHg 60%
    19:00 +16°C° 0 mm 6 mps 764 mmHg 63%
    20:00 +16°C° 0 mm 6 mps 763 mmHg 65%
    21:00 +15°C° 0 mm 6 mps 763 mmHg 68%
    22:00 +14°C° 0 mm 5 mps 763 mmHg 70%
    23:00 +14°C° 0 mm 5 mps 763 mmHg 73%

    18 October, Friday

    Time Temperature Precipitation Wind Pressure Humidity
    00:00 +13°C° 0 mm 5 mps 763 mmHg 76%
    01:00 +13°C° 0 mm 5 mps 763 mmHg 78%
    02:00 +12°C° 0 mm 4 mps 762 mmHg 80%
    03:00 +12°C° 0 mm 4 mps 762 mmHg 82%
    04:00 +11°C° 0 mm 4 mps 762 mmHg 84%
    05:00 +11°C° 0 mm 4 mps 762 mmHg 86%
    06:00 +11°C° 0 mm 4 mps 762 mmHg 88%
    07:00 +12°C° 0 mm 4 mps 762 mmHg 82%
    08:00 +13°C° 0 mm 4 mps 762 mmHg 77%
    09:00 +14°C° 0 mm 5 mps 762 mmHg 72%
    10:00 +16°C° 0 mm 5 mps 762 mmHg 64%
    11:00 +19°C° 0 mm 5 mps 762 mmHg 56%
    12:00 +20°C° 0 mm 5 mps 761 mmHg 48%
    13:00 +21°C° 0 mm 4 mps 761 mmHg 45%
    14:00 +22°C° 0 mm 4 mps 761 mmHg 42%
    15:00 +22°C° 0 mm 3 mps 761 mmHg 39%
    16:00 +21°C° 0 mm 3 mps 761 mmHg 42%
    17:00 +20°C° 0 mm 3 mps 761 mmHg 46%
    18:00 +18°C° 0 mm 2 mps 761 mmHg 49%
    19:00 +18°C° 0 mm 3 mps 761 mmHg 51%
    20:00 +17°C° 0 mm 3 mps 761 mmHg 52%
    21:00 +16°C° 0 mm 3 mps 761 mmHg 54%
    22:00 +16°C° 0 mm 3 mps 761 mmHg 55%
    23:00 +16°C° 0 mm 3 mps 761 mmHg 56%

    19 October, Saturday

    Time Temperature Precipitation Wind Pressure Humidity
    00:00 +14°C° 0 mm 3 mps 761 mmHg 57%
    01:00 +15°C° 0 mm 2 mps 761 mmHg 58%
    02:00 +15°C° 0 mm 2 mps 761 mmHg 58%
    03:00 +14°C° 0 mm 2 mps 761 mmHg 59%
    04:00 +14°C° 0 mm 2 mps 761 mmHg 59%
    05:00 +14°C° 0 mm 2 mps 762 mmHg 60%
    06:00 +14°C° 0 mm 2 mps 762 mmHg 60%
    07:00 +15°C° 0 mm 2 mps 762 mmHg 56%
    08:00 +16°C° 0 mm 2 mps 762 mmHg 52%
    09:00 +17°C° 0 mm 2 mps 763 mmHg 48%
    10:00 +19°C° 0 mm 3 mps 763 mmHg 44%
    11:00 +20°C° 0 mm 3 mps 763 mmHg 41%
    12:00 +22°C° 0 mm 3 mps 763 mmHg 37%
    13:00 +23°C° 0 mm 2 mps 762 mmHg 36%
    14:00 +23°C° 0 mm 2 mps 762 mmHg 35%
    15:00 +24°C° 0 mm 2 mps 762 mmHg 33%
    16:00 +21°C° 0 mm 2 mps 762 mmHg 37%
    17:00 +20°C° 0 mm 2 mps 762 mmHg 40%
    18:00 +19°C° 0 mm 2 mps 762 mmHg 44%
    19:00 +18°C° 0 mm 2 mps 763 mmHg 46%
    20:00 +17°C° 0 mm 3 mps 763 mmHg 48%
    21:00 +17°C° 0 mm 3 mps 763 mmHg 49%
    22:00 +16°C° 0 mm 3 mps 763 mmHg 50%
    23:00 +16°C° 0 mm 3 mps 763 mmHg 51%

    20 October, Sunday

    Time Temperature Precipitation Wind Pressure Humidity
    00:00 +14°C° 0 mm 3 mps 764 mmHg 52%
    01:00 +14°C° 0 mm 3 mps 764 mmHg 53%
    02:00 +14°C° 0 mm 3 mps 764 mmHg 54%
    03:00 +13°C° 0 mm 3 mps 764 mmHg 55%
    04:00 +13°C° 0 mm 3 mps 764 mmHg 56%
    05:00 +13°C° 0 mm 3 mps 764 mmHg 57%
    06:00 +12°C° 0 mm 3 mps 764 mmHg 59%
    07:00 +14°C° 0 mm 3 mps 765 mmHg 56%
    08:00 +15°C° 0 mm 4 mps 765 mmHg 54%
    09:00 +17°C° 0 mm 4 mps 765 mmHg 51%
    10:00 +18°C° 0 mm 4 mps 765 mmHg 49%
    11:00 +19°C° 0 mm 4 mps 765 mmHg 46%
    12:00 +21°C° 0 mm 5 mps 765 mmHg 44%
    13:00 +21°C° 0 mm 5 mps 765 mmHg 44%
    14:00 +21°C° 0 mm 5 mps 765 mmHg 45%
    15:00 +21°C° 0 mm 5 mps 765 mmHg 45%
    16:00 +20°C° 0 mm 5 mps 765 mmHg 51%
    17:00 +17°C° 0 mm 5 mps 765 mmHg 56%
    18:00 +16°C° 0 mm 5 mps 765 mmHg 61%
    19:00 +15°C° 0 mm 5 mps 766 mmHg 63%
    20:00 +15°C° 0 mm 5 mps 766 mmHg 65%
    21:00 +14°C° 0 mm 5 mps 766 mmHg 66%
    22:00 +14°C° 0 mm 5 mps 766 mmHg 67%
    23:00 +13°C° 0 mm 5 mps 766 mmHg 69%
    Show more